AISSAT 1 (36797 NORAD) Tracking and Keplerian Element Data

This shows tracking and keplerian element data for the satellite.

Feedback or suggestion? Click here.




ElementValue
Catalog36797
NameAISSAT 1
Epoch Orbit58663
Epoch Day130.90385234
Epoch Year2021
RAAN295.6547
Inclination98.2134
Eccentricity0.0011958
Argument of Perigee44.5449
Mean Anonmoly315.6725
Mean Motion14.86485815
Decay Rate1.74E-06
L11 36797U 10035C 21130.90385234 .00000174 00000-0 26269-4 0 9993
L22 36797 98.2134 295.6547 0011958 44.5449 315.6725 14.86485815586630

Live tracking and technical data element details for AISSAT 1 (NORAD 36797). AISSAT 1 can be tracked NOW for your location showing map with azimuth and elevation plus other details from your city location.

Track the satellite on the map from your city or location and see movement details for azimuth, elevation, latitude, longitude, range, height, and movement on the map or in text.







IsCatalogInMostPopularTable: catalog: 36797, numindb: 24911
Update: records affected: 1



GetName: 36797 AISSAT 1

Hit Count: updated at: Tue, 11 May 2021 19:45:35 GMT